Location: Vancouver
(49.2500°N, 123.1330°W)
Time: 20:21:03
(UTC-07:00)

BREEZE-M DEB (TANK) - Visible Passes

Search period start: 30 July 2014 00:00
Search period end: 09 August 2014 00:00
Orbit: 270 x 13682 km, 49.6° (Epoch: 29 July)

Date Brightness Start Highest point End Pass type
(mag) Time Alt. Az. Time Alt. Az. Time Alt. Az.
30 Jul 8.6 00:00:00 41° WNW 00:39:14 53° WSW 01:57:18 22° SSW visible
30 Jul 8.6 20:38:18 10° WNW 21:30:32 82° SW 23:16:42 18° SSE visible
31 Jul 8.8 01:19:26 10° NW 02:18:11 32° W 03:32:36 11° SW visible
31 Jul 8.6 22:21:41 10° WNW 23:26:22 64° WSW 00:52:05 23° S visible
01 Aug 9.2 03:21:57 10° NW 03:49:12 13° WNW 04:20:59 10° W visible
01 Aug 8.7 19:30:05 10° W 20:10:54 88° SSW 22:11:40 12° SE visible
02 Aug 8.7 00:07:10 10° NW 01:10:40 43° W 02:27:34 17° SW visible
02 Aug 8.6 21:12:29 10° WNW 22:10:11 74° SW 23:47:13 21° SSE visible
03 Aug 9.0 01:58:27 10° NW 02:45:43 22° W 03:47:05 10° WSW visible
03 Aug 8.7 22:56:24 10° WNW 00:00:20 53° WSW 01:22:53 20° SSW visible
04 Aug 8.7 20:03:46 10° WNW 20:51:32 82° SSW 22:42:41 16° SSE visible
05 Aug 8.9 00:43:27 10° NW 01:39:59 32° W 02:57:24 10° SW visible
05 Aug 8.7 21:46:32 10° WNW 22:46:52 64° WSW 00:18:30 20° S visible
06 Aug 9.3 02:44:17 10° WNW 03:11:43 13° WNW 03:44:35 10° W visible
06 Aug 8.8 18:55:24 10° W 19:32:31 88° SSW 21:35:57 10° SE visible
06 Aug 8.8 23:31:16 10° NW 00:31:45 43° W 01:54:24 14° SSW visible
07 Aug 8.7 20:37:16 10° WNW 21:30:23 74° SW 23:14:24 17° SSE visible
08 Aug 9.1 01:21:30 10° NW 02:07:33 23° W 03:10:05 10° WSW visible
08 Aug 9.2 22:20:31 10° WNW 23:20:42 54° WSW 00:00:00 45° SW visible
